contact:dominique.lefevre@mio.osupytheas.fr, maurice.libes@osupytheas.fr, didier.mallarino@osupytheas.fr
Project:EMSO http://www.emso-fr.org/EMSO-France
Depth: 2436.0 m
Title:EMSO Ligure Ouest : Data MII capteur OXYGEN
DateTime,Latitude,Longitude,Optode-Type,Optode_Serial,Oxygen,Saturation_Oxygen,Temperature
DateTime,Latitude,Longitude,Optode-Type,Optode_Serial,µmol.l-1,%,degC
2017-10-28T00:01:35,42.805,6.029,4330,1995,194.155,59.375,13.288
2017-10-28T00:04:35,42.805,6.029,4330,1995,194.050,59.342,13.287
2017-10-28T00:07:35,42.805,6.029,4330,1995,194.312,59.423,13.287
2017-10-28T00:10:35,42.805,6.029,4330,1995,194.371,59.440,13.287
2017-10-28T00:13:35,42.805,6.029,4330,1995,194.756,59.559,13.288
2017-10-28T00:16:35,42.805,6.029,4330,1995,194.964,59.622,13.287
2017-10-28T00:19:35,42.805,6.029,4330,1995,194.950,59.617,13.287
2017-10-28T00:22:35,42.805,6.029,4330,1995,195.062,59.651,13.287
2017-10-28T00:25:35,42.805,6.029,4330,1995,195.050,59.650,13.288
2017-10-28T00:28:35,42.805,6.029,4330,1995,195.254,59.710,13.287
2017-10-28T00:31:35,42.805,6.029,4330,1995,195.260,59.712,13.287
2017-10-28T00:34:35,42.805,6.029,4330,1995,195.303,59.726,13.288
2017-10-28T00:37:35,42.805,6.029,4330,1995,195.616,59.821,13.287
2017-10-28T00:40:35,42.805,6.029,4330,1995,195.898,59.907,13.287
2017-10-28T00:43:35,42.805,6.029,4330,1995,196.076,59.961,13.287
2017-10-28T00:46:35,42.805,6.029,4330,1995,196.238,60.011,13.287
2017-10-28T00:49:35,42.805,6.029,4330,1995,196.498,60.090,13.286
2017-10-28T00:52:35,42.805,6.029,4330,1995,196.410,60.063,13.287
2017-10-28T00:55:35,42.805,6.029,4330,1995,196.413,60.066,13.288
2017-10-28T00:58:35,42.805,6.029,4330,1995,196.520,60.097,13.287
2017-10-28T01:01:35,42.805,6.029,4330,1995,196.411,60.065,13.288
2017-10-28T01:04:35,42.805,6.029,4330,1995,196.305,60.032,13.288
2017-10-28T01:07:35,42.805,6.029,4330,1995,196.221,60.007,13.288
2017-10-28T01:10:35,42.805,6.029,4330,1995,196.126,59.979,13.289
2017-10-28T01:13:35,42.805,6.029,4330,1995,196.359,60.049,13.288
2017-10-28T01:16:35,42.805,6.029,4330,1995,196.504,60.092,13.287
2017-10-28T01:19:35,42.805,6.029,4330,1995,196.578,60.115,13.287
2017-10-28T01:22:35,42.805,6.029,4330,1995,196.584,60.117,13.287
2017-10-28T01:25:35,42.805,6.029,4330,1995,196.566,60.111,13.287
2017-10-28T01:28:35,42.805,6.029,4330,1995,196.478,60.084,13.287
2017-10-28T01:31:35,42.805,6.029,4330,1995,196.411,60.063,13.287
2017-10-28T01:34:35,42.805,6.029,4330,1995,196.368,60.050,13.287
2017-10-28T01:37:35,42.805,6.029,4330,1995,196.392,60.058,13.287
2017-10-28T01:40:35,42.805,6.029,4330,1995,196.480,60.085,13.287
2017-10-28T01:43:35,42.805,6.029,4330,1995,196.581,60.115,13.287
2017-10-28T01:46:35,42.805,6.029,4330,1995,196.612,60.125,13.286
2017-10-28T01:49:35,42.805,6.029,4330,1995,196.685,60.147,13.287
2017-10-28T01:52:35,42.805,6.029,4330,1995,196.692,60.149,13.287
2017-10-28T01:55:35,42.805,6.029,4330,1995,196.792,60.180,13.287
2017-10-28T01:58:35,42.805,6.029,4330,1995,196.782,60.176,13.286
2017-10-28T02:01:35,42.805,6.029,4330,1995,196.881,60.207,13.286
2017-10-28T02:04:35,42.805,6.029,4330,1995,196.832,60.192,13.286
2017-10-28T02:07:35,42.805,6.029,4330,1995,196.804,60.184,13.287
2017-10-28T02:10:35,42.805,6.029,4330,1995,196.781,60.177,13.287
2017-10-28T02:13:35,42.805,6.029,4330,1995,196.672,60.143,13.287
2017-10-28T02:16:35,42.805,6.029,4330,1995,196.612,60.126,13.287
2017-10-28T02:19:35,42.805,6.029,4330,1995,196.674,60.144,13.287
2017-10-28T02:22:35,42.805,6.029,4330,1995,196.621,60.128,13.287
2017-10-28T02:25:35,42.805,6.029,4330,1995,196.627,60.129,13.286
2017-10-28T02:28:35,42.805,6.029,4330,1995,196.785,60.178,13.287
2017-10-28T02:31:35,42.805,6.029,4330,1995,196.831,60.192,13.286
2017-10-28T02:34:35,42.805,6.029,4330,1995,196.777,60.175,13.286
2017-10-28T02:37:35,42.805,6.029,4330,1995,196.837,60.193,13.286
2017-10-28T02:40:35,42.805,6.029,4330,1995,196.871,60.204,13.287
2017-10-28T02:43:35,42.805,6.029,4330,1995,196.894,60.211,13.286
2017-10-28T02:46:35,42.805,6.029,4330,1995,197.013,60.247,13.286
2017-10-28T02:49:35,42.805,6.029,4330,1995,196.964,60.232,13.286
2017-10-28T02:52:35,42.805,6.029,4330,1995,196.924,60.220,13.286
2017-10-28T02:55:35,42.805,6.029,4330,1995,196.984,60.238,13.286
2017-10-28T02:58:35,42.805,6.029,4330,1995,196.987,60.239,13.287
2017-10-28T03:01:35,42.805,6.029,4330,1995,196.914,60.217,13.286
2017-10-28T03:04:35,42.805,6.029,4330,1995,196.996,60.242,13.286
2017-10-28T03:07:35,42.805,6.029,4330,1995,196.870,60.204,13.287
2017-10-28T03:10:35,42.805,6.029,4330,1995,196.811,60.185,13.286
2017-10-28T03:13:34,42.805,6.029,4330,1995,196.725,60.159,13.287
2017-10-28T03:16:34,42.805,6.029,4330,1995,196.711,60.155,13.286
2017-10-28T03:19:34,42.805,6.029,4330,1995,196.863,60.202,13.287
2017-10-28T03:22:34,42.805,6.029,4330,1995,197.009,60.246,13.286
2017-10-28T03:25:34,42.805,6.029,4330,1995,196.959,60.231,13.286
2017-10-28T03:28:34,42.805,6.029,4330,1995,196.807,60.184,13.287
2017-10-28T03:31:34,42.805,6.029,4330,1995,196.764,60.172,13.287
2017-10-28T03:34:34,42.805,6.029,4330,1995,196.787,60.179,13.287
2017-10-28T03:37:34,42.805,6.029,4330,1995,196.792,60.181,13.287
2017-10-28T03:40:34,42.805,6.029,4330,1995,196.814,60.187,13.287
2017-10-28T03:43:34,42.805,6.029,4330,1995,196.802,60.183,13.287
2017-10-28T03:46:34,42.805,6.029,4330,1995,196.780,60.176,13.287
2017-10-28T03:49:34,42.805,6.029,4330,1995,196.790,60.179,13.286
2017-10-28T03:52:34,42.805,6.029,4330,1995,196.931,60.222,13.286
2017-10-28T03:55:34,42.805,6.029,4330,1995,196.916,60.217,13.286
2017-10-28T03:58:34,42.805,6.029,4330,1995,196.936,60.223,13.286
2017-10-28T04:01:34,42.805,6.029,4330,1995,196.835,60.192,13.286
2017-10-28T04:04:34,42.805,6.029,4330,1995,196.838,60.194,13.287
2017-10-28T04:07:34,42.805,6.029,4330,1995,196.869,60.203,13.286
2017-10-28T04:10:34,42.805,6.029,4330,1995,196.928,60.221,13.286
2017-10-28T04:13:34,42.805,6.029,4330,1995,197.046,60.257,13.286
2017-10-28T04:16:34,42.805,6.029,4330,1995,197.016,60.248,13.286
2017-10-28T04:19:34,42.805,6.029,4330,1995,196.986,60.239,13.286
2017-10-28T04:22:34,42.805,6.029,4330,1995,197.087,60.270,13.286
2017-10-28T04:25:34,42.805,6.029,4330,1995,197.104,60.275,13.286
2017-10-28T04:28:34,42.805,6.029,4330,1995,197.096,60.272,13.286
2017-10-28T04:31:34,42.805,6.029,4330,1995,197.102,60.274,13.286
2017-10-28T04:34:34,42.805,6.029,4330,1995,197.149,60.288,13.286
2017-10-28T04:37:34,42.805,6.029,4330,1995,197.173,60.296,13.286
2017-10-28T04:40:34,42.805,6.029,4330,1995,197.082,60.268,13.286
2017-10-28T04:43:34,42.805,6.029,4330,1995,196.998,60.242,13.286
2017-10-28T04:46:34,42.805,6.029,4330,1995,196.987,60.240,13.287
2017-10-28T04:49:34,42.805,6.029,4330,1995,196.981,60.238,13.287
2017-10-28T04:52:34,42.805,6.029,4330,1995,196.914,60.217,13.286
2017-10-28T04:55:34,42.805,6.029,4330,1995,196.892,60.211,13.287
2017-10-28T04:58:34,42.805,6.029,4330,1995,196.874,60.205,13.287
2017-10-28T05:01:34,42.805,6.029,4330,1995,196.812,60.186,13.286
2017-10-28T05:04:34,42.805,6.029,4330,1995,196.817,60.187,13.286
2017-10-28T05:07:34,42.805,6.029,4330,1995,196.771,60.173,13.286
2017-10-28T05:10:34,42.805,6.029,4330,1995,196.879,60.206,13.286
2017-10-28T05:13:34,42.805,6.029,4330,1995,196.980,60.237,13.286
2017-10-28T05:16:34,42.805,6.029,4330,1995,196.957,60.230,13.286
2017-10-28T05:19:34,42.805,6.029,4330,1995,197.040,60.255,13.286
2017-10-28T05:22:34,42.805,6.029,4330,1995,197.004,60.245,13.287
2017-10-28T05:25:34,42.805,6.029,4330,1995,197.015,60.248,13.286
2017-10-28T05:28:34,42.805,6.029,4330,1995,196.985,60.239,13.287
2017-10-28T05:31:34,42.805,6.029,4330,1995,196.939,60.225,13.286
2017-10-28T05:34:34,42.805,6.029,4330,1995,197.019,60.249,13.287
2017-10-28T05:37:34,42.805,6.029,4330,1995,196.896,60.211,13.286
2017-10-28T05:40:34,42.805,6.029,4330,1995,196.787,60.178,13.287
2017-10-28T05:43:34,42.805,6.029,4330,1995,196.772,60.174,13.287
2017-10-28T05:46:34,42.805,6.029,4330,1995,196.787,60.178,13.287
2017-10-28T05:49:34,42.805,6.029,4330,1995,196.717,60.156,13.286
2017-10-28T05:52:34,42.805,6.029,4330,1995,196.550,60.105,13.286
2017-10-28T05:55:34,42.805,6.029,4330,1995,196.618,60.126,13.286
2017-10-28T05:58:34,42.805,6.029,4330,1995,196.683,60.146,13.286
2017-10-28T06:01:34,42.805,6.029,4330,1995,196.908,60.215,13.286
2017-10-28T06:04:34,42.805,6.029,4330,1995,196.820,60.188,13.286
2017-10-28T06:07:34,42.805,6.029,4330,1995,196.491,60.087,13.286
2017-10-28T06:10:34,42.805,6.029,4330,1995,196.737,60.163,13.286
2017-10-28T06:13:34,42.805,6.029,4330,1995,196.860,60.200,13.286
2017-10-28T06:16:34,42.805,6.029,4330,1995,196.744,60.165,13.286
2017-10-28T06:19:34,42.805,6.029,4330,1995,196.845,60.195,13.286
2017-10-28T06:22:34,42.805,6.029,4330,1995,197.002,60.243,13.286
2017-10-28T06:25:34,42.805,6.029,4330,1995,196.928,60.221,13.286
2017-10-28T06:28:34,42.805,6.029,4330,1995,197.015,60.248,13.286
2017-10-28T06:31:34,42.805,6.029,4330,1995,196.996,60.242,13.286
2017-10-28T06:34:34,42.805,6.029,4330,1995,196.902,60.213,13.286
2017-10-28T06:37:34,42.805,6.029,4330,1995,196.869,60.203,13.286
2017-10-28T06:40:34,42.805,6.029,4330,1995,196.717,60.156,13.286
2017-10-28T06:43:34,42.805,6.029,4330,1995,196.699,60.150,13.286
2017-10-28T06:46:34,42.805,6.029,4330,1995,196.698,60.151,13.286
2017-10-28T06:49:34,42.805,6.029,4330,1995,196.750,60.166,13.286
2017-10-28T06:52:34,42.805,6.029,4330,1995,196.704,60.152,13.286
2017-10-28T06:55:34,42.805,6.029,4330,1995,196.745,60.165,13.286
2017-10-28T06:58:34,42.805,6.029,4330,1995,197.018,60.248,13.286
2017-10-28T07:01:34,42.805,6.029,4330,1995,196.663,60.140,13.286
2017-10-28T07:04:34,42.805,6.029,4330,1995,196.737,60.162,13.286
2017-10-28T07:07:34,42.805,6.029,4330,1995,196.968,60.234,13.287
2017-10-28T07:10:34,42.805,6.029,4330,1995,196.934,60.223,13.286
2017-10-28T07:13:34,42.805,6.029,4330,1995,196.962,60.232,13.287
2017-10-28T07:16:34,42.805,6.029,4330,1995,197.098,60.274,13.287
2017-10-28T07:19:34,42.805,6.029,4330,1995,196.821,60.188,13.286
2017-10-28T07:22:34,42.805,6.029,4330,1995,196.736,60.162,13.286
2017-10-28T07:25:34,42.805,6.029,4330,1995,196.755,60.168,13.286
2017-10-28T07:28:34,42.805,6.029,4330,1995,196.553,60.106,13.286
2017-10-28T07:31:34,42.805,6.029,4330,1995,196.800,60.182,13.286
2017-10-28T07:34:34,42.805,6.029,4330,1995,196.998,60.242,13.286
2017-10-28T07:37:34,42.805,6.029,4330,1995,196.731,60.161,13.286
2017-10-28T07:40:34,42.805,6.029,4330,1995,196.545,60.104,13.286
2017-10-28T07:43:34,42.805,6.029,4330,1995,196.585,60.116,13.286
2017-10-28T07:46:34,42.805,6.029,4330,1995,196.694,60.149,13.286
2017-10-28T07:49:34,42.805,6.029,4330,1995,196.694,60.149,13.286
2017-10-28T07:52:34,42.805,6.029,4330,1995,196.559,60.108,13.286
2017-10-28T07:55:34,42.805,6.029,4330,1995,196.605,60.122,13.286
2017-10-28T07:58:34,42.805,6.029,4330,1995,196.577,60.114,13.286
2017-10-28T08:01:34,42.805,6.029,4330,1995,196.467,60.080,13.286
2017-10-28T08:04:34,42.805,6.029,4330,1995,196.392,60.057,13.286
2017-10-28T08:07:34,42.805,6.029,4330,1995,196.463,60.079,13.286
2017-10-28T08:10:34,42.805,6.029,4330,1995,196.564,60.110,13.286
2017-10-28T08:13:34,42.805,6.029,4330,1995,196.780,60.176,13.286
2017-10-28T08:16:34,42.805,6.029,4330,1995,196.637,60.132,13.286
2017-10-28T08:19:34,42.805,6.029,4330,1995,196.517,60.095,13.286
2017-10-28T08:22:34,42.805,6.029,4330,1995,196.163,59.986,13.286
2017-10-28T08:25:34,42.805,6.029,4330,1995,196.223,60.005,13.286
2017-10-28T08:28:34,42.805,6.029,4330,1995,196.061,59.956,13.286
2017-10-28T08:31:34,42.805,6.029,4330,1995,196.396,60.058,13.286
2017-10-28T08:34:34,42.805,6.029,4330,1995,196.262,60.017,13.286
2017-10-28T08:37:34,42.805,6.029,4330,1995,196.481,60.085,13.287
2017-10-28T08:40:34,42.805,6.029,4330,1995,196.553,60.106,13.286
2017-10-28T08:43:34,42.805,6.029,4330,1995,196.721,60.158,13.286
2017-10-28T08:46:34,42.805,6.029,4330,1995,196.668,60.142,13.287
2017-10-28T08:49:34,42.805,6.029,4330,1995,196.791,60.180,13.287
2017-10-28T08:52:34,42.805,6.029,4330,1995,196.661,60.139,13.286
2017-10-28T08:55:34,42.805,6.029,4330,1995,196.731,60.161,13.287
2017-10-28T08:58:34,42.805,6.029,4330,1995,196.662,60.140,13.287
2017-10-28T09:01:34,42.805,6.029,4330,1995,196.544,60.106,13.288
2017-10-28T09:04:34,42.805,6.029,4330,1995,196.866,60.203,13.287
2017-10-28T09:07:34,42.805,6.029,4330,1995,196.756,60.168,13.286
2017-10-28T09:10:34,42.805,6.029,4330,1995,196.940,60.225,13.287
2017-10-28T09:13:34,42.805,6.029,4330,1995,196.931,60.224,13.288
2017-10-28T09:16:34,42.805,6.029,4330,1995,196.869,60.204,13.287
2017-10-28T09:19:34,42.805,6.029,4330,1995,196.869,60.205,13.288
2017-10-28T09:22:34,42.805,6.029,4330,1995,196.932,60.224,13.287
2017-10-28T09:25:34,42.805,6.029,4330,1995,196.898,60.214,13.288
2017-10-28T09:28:34,42.805,6.029,4330,1995,196.736,60.164,13.288
2017-10-28T09:31:34,42.805,6.029,4330,1995,197.064,60.263,13.287
2017-10-28T09:34:34,42.805,6.029,4330,1995,197.144,60.287,13.287
2017-10-28T09:37:34,42.805,6.029,4330,1995,197.152,60.291,13.287
2017-10-28T09:40:34,42.805,6.029,4330,1995,197.096,60.273,13.287
2017-10-28T09:43:34,42.805,6.029,4330,1995,197.233,60.315,13.287
2017-10-28T09:46:34,42.805,6.029,4330,1995,197.199,60.305,13.287
2017-10-28T09:49:34,42.805,6.029,4330,1995,197.646,60.441,13.287
2017-10-28T09:52:34,42.805,6.029,4330,1995,197.366,60.356,13.287
2017-10-28T09:55:34,42.805,6.029,4330,1995,197.484,60.392,13.287
2017-10-28T09:58:34,42.805,6.029,4330,1995,197.578,60.420,13.287
2017-10-28T10:01:34,42.805,6.029,4330,1995,197.611,60.430,13.286
2017-10-28T10:04:34,42.805,6.029,4330,1995,197.686,60.453,13.286
2017-10-28T10:07:34,42.805,6.029,4330,1995,197.708,60.460,13.286
2017-10-28T10:10:34,42.805,6.029,4330,1995,197.648,60.442,13.287
2017-10-28T10:13:34,42.805,6.029,4330,1995,197.381,60.360,13.286
2017-10-28T10:16:34,42.805,6.029,4330,1995,197.341,60.348,13.287
2017-10-28T10:19:34,42.805,6.029,4330,1995,197.382,60.360,13.286
2017-10-28T10:22:34,42.805,6.029,4330,1995,197.419,60.372,13.287
2017-10-28T10:25:34,42.805,6.029,4330,1995,197.288,60.333,13.287
2017-10-28T10:28:34,42.805,6.029,4330,1995,197.341,60.349,13.287
2017-10-28T10:31:34,42.805,6.029,4330,1995,197.227,60.313,13.286
2017-10-28T10:34:34,42.805,6.029,4330,1995,197.299,60.334,13.286
2017-10-28T10:37:34,42.805,6.029,4330,1995,197.005,60.246,13.287
2017-10-28T10:40:34,42.805,6.029,4330,1995,197.250,60.319,13.286
2017-10-28T10:43:34,42.805,6.029,4330,1995,197.024,60.251,13.286
2017-10-28T10:46:34,42.805,6.029,4330,1995,197.327,60.342,13.286
2017-10-28T10:49:34,42.805,6.029,4330,1995,197.401,60.366,13.286
2017-10-28T10:52:34,42.805,6.029,4330,1995,197.275,60.327,13.286
2017-10-28T10:55:34,42.805,6.029,4330,1995,197.214,60.309,13.286
2017-10-28T10:58:34,42.805,6.029,4330,1995,197.094,60.272,13.286
2017-10-28T11:01:34,42.805,6.029,4330,1995,196.974,60.238,13.288
2017-10-28T11:04:34,42.805,6.029,4330,1995,196.984,60.239,13.287
2017-10-28T11:07:34,42.805,6.029,4330,1995,196.854,60.199,13.286
2017-10-28T11:10:34,42.805,6.029,4330,1995,196.872,60.204,13.287
2017-10-28T11:13:34,42.805,6.029,4330,1995,196.634,60.131,13.287
2017-10-28T11:16:34,42.805,6.029,4330,1995,196.288,60.026,13.287
2017-10-28T11:19:34,42.805,6.029,4330,1995,196.367,60.053,13.289
2017-10-28T11:22:34,42.805,6.029,4330,1995,196.457,60.078,13.287
2017-10-28T11:25:34,42.805,6.029,4330,1995,196.629,60.130,13.287
2017-10-28T11:28:34,42.805,6.029,4330,1995,196.475,60.083,13.287
2017-10-28T11:31:34,42.805,6.029,4330,1995,196.656,60.138,13.286
2017-10-28T11:34:34,42.805,6.029,4330,1995,196.655,60.138,13.286
2017-10-28T11:37:34,42.805,6.029,4330,1995,196.705,60.153,13.286
2017-10-28T11:40:34,42.805,6.029,4330,1995,196.415,60.065,13.287
2017-10-28T11:43:34,42.805,6.029,4330,1995,196.244,60.012,13.287
2017-10-28T11:46:34,42.805,6.029,4330,1995,196.657,60.138,13.286
2017-10-28T11:49:34,42.805,6.029,4330,1995,196.388,60.057,13.287
2017-10-28T11:52:34,42.805,6.029,4330,1995,196.395,60.058,13.286
2017-10-28T11:55:34,42.805,6.029,4330,1995,196.182,59.994,13.287
2017-10-28T11:58:34,42.805,6.029,4330,1995,196.386,60.056,13.287
2017-10-28T12:01:34,42.805,6.029,4330,1995,196.423,60.068,13.287
2017-10-28T12:04:34,42.805,6.029,4330,1995,196.314,60.034,13.287
2017-10-28T12:07:34,42.805,6.029,4330,1995,196.453,60.076,13.287
2017-10-28T12:10:34,42.805,6.029,4330,1995,196.158,59.986,13.287
2017-10-28T12:13:34,42.805,6.029,4330,1995,195.987,59.935,13.287
2017-10-28T12:16:34,42.805,6.029,4330,1995,196.110,59.971,13.287
2017-10-28T12:19:34,42.805,6.029,4330,1995,196.296,60.028,13.287
2017-10-28T12:22:34,42.805,6.029,4330,1995,196.338,60.041,13.287
2017-10-28T12:25:34,42.805,6.029,4330,1995,196.169,59.990,13.287
2017-10-28T12:28:34,42.805,6.029,4330,1995,196.327,60.038,13.287
2017-10-28T12:31:34,42.805,6.029,4330,1995,196.850,60.200,13.288
2017-10-28T12:34:34,42.805,6.029,4330,1995,196.541,60.104,13.287
2017-10-28T12:37:34,42.805,6.029,4330,1995,196.263,60.019,13.288
2017-10-28T12:40:34,42.805,6.029,4330,1995,195.811,59.880,13.287
2017-10-28T12:43:34,42.805,6.029,4330,1995,195.831,59.887,13.287
2017-10-28T12:46:34,42.805,6.029,4330,1995,195.646,59.832,13.288
2017-10-28T12:49:34,42.805,6.029,4330,1995,195.641,59.832,13.289
2017-10-28T12:52:34,42.805,6.029,4330,1995,195.639,59.828,13.287
2017-10-28T12:55:34,42.805,6.029,4330,1995,195.527,59.795,13.288
2017-10-28T12:58:34,42.805,6.029,4330,1995,195.462,59.775,13.288
2017-10-28T13:01:34,42.805,6.029,4330,1995,195.209,59.697,13.288
2017-10-28T13:04:34,42.805,6.029,4330,1995,195.603,59.817,13.288
2017-10-28T13:07:34,42.805,6.029,4330,1995,195.637,59.828,13.287
2017-10-28T13:10:34,42.805,6.029,4330,1995,195.514,59.792,13.289
2017-10-28T13:13:34,42.805,6.029,4330,1995,196.084,59.965,13.288
2017-10-28T13:16:34,42.805,6.029,4330,1995,195.781,59.873,13.288
2017-10-28T13:19:34,42.805,6.029,4330,1995,195.210,59.698,13.288
2017-10-28T13:22:34,42.805,6.029,4330,1995,195.095,59.663,13.288
2017-10-28T13:25:34,42.805,6.029,4330,1995,195.714,59.851,13.287
2017-10-28T13:28:34,42.805,6.029,4330,1995,195.643,59.830,13.288
2017-10-28T13:31:34,42.805,6.029,4330,1995,195.752,59.863,13.288
2017-10-28T13:34:34,42.805,6.029,4330,1995,195.970,59.931,13.288
2017-10-28T13:37:34,42.805,6.029,4330,1995,195.523,59.792,13.287
2017-10-28T13:40:34,42.805,6.029,4330,1995,195.136,59.675,13.288
2017-10-28T13:43:34,42.805,6.029,4330,1995,194.996,59.632,13.287
2017-10-28T13:46:34,42.805,6.029,4330,1995,195.198,59.698,13.291
2017-10-28T13:49:34,42.805,6.029,4330,1995,195.317,59.732,13.289
2017-10-28T13:52:34,42.805,6.029,4330,1995,195.166,59.685,13.288
2017-10-28T13:55:34,42.805,6.029,4330,1995,194.661,59.530,13.288
2017-10-28T13:58:34,42.805,6.029,4330,1995,194.941,59.618,13.290
2017-10-28T14:01:34,42.805,6.029,4330,1995,194.978,59.628,13.289
2017-10-28T14:04:34,42.805,6.029,4330,1995,194.331,59.433,13.291
2017-10-28T14:07:34,42.805,6.029,4330,1995,194.223,59.398,13.289
2017-10-28T14:10:34,42.805,6.029,4330,1995,194.122,59.363,13.287
2017-10-28T14:13:34,42.805,6.029,4330,1995,194.410,59.453,13.288
2017-10-28T14:16:34,42.805,6.029,4330,1995,194.825,59.586,13.293
2017-10-28T14:19:34,42.805,6.029,4330,1995,195.355,59.744,13.289
2017-10-28T14:22:34,42.805,6.029,4330,1995,195.587,59.813,13.288
2017-10-28T14:25:34,42.805,6.029,4330,1995,195.398,59.758,13.290
2017-10-28T14:28:34,42.805,6.029,4330,1995,195.531,59.799,13.290
2017-10-28T14:31:34,42.805,6.029,4330,1995,195.175,59.689,13.289
2017-10-28T14:34:34,42.805,6.029,4330,1995,195.073,59.655,13.287
2017-10-28T14:37:34,42.805,6.029,4330,1995,195.281,59.718,13.287
2017-10-28T14:40:34,42.805,6.029,4330,1995,195.136,59.677,13.289
2017-10-28T14:43:34,42.805,6.029,4330,1995,194.785,59.570,13.290
2017-10-28T14:46:34,42.805,6.029,4330,1995,194.435,59.462,13.289
2017-10-28T14:49:34,42.805,6.029,4330,1995,194.370,59.442,13.289
2017-10-28T14:52:34,42.805,6.029,4330,1995,194.124,59.370,13.291
2017-10-28T14:55:34,42.805,6.029,4330,1995,194.143,59.373,13.289
2017-10-28T14:58:34,42.805,6.029,4330,1995,194.558,59.498,13.288
2017-10-28T15:01:34,42.805,6.029,4330,1995,195.049,59.648,13.287
2017-10-28T15:04:34,42.805,6.029,4330,1995,195.266,59.714,13.288
2017-10-28T15:07:34,42.805,6.029,4330,1995,195.698,59.846,13.287
2017-10-28T15:10:34,42.805,6.029,4330,1995,196.055,59.955,13.287
2017-10-28T15:13:34,42.805,6.029,4330,1995,196.041,59.951,13.287
2017-10-28T15:16:34,42.805,6.029,4330,1995,195.564,59.807,13.288
2017-10-28T15:19:34,42.805,6.029,4330,1995,195.209,59.698,13.289
2017-10-28T15:22:34,42.805,6.029,4330,1995,194.835,59.583,13.288
2017-10-28T15:25:34,42.805,6.029,4330,1995,194.486,59.479,13.290
2017-10-28T15:28:34,42.805,6.029,4330,1995,194.413,59.453,13.287
2017-10-28T15:31:34,42.805,6.029,4330,1995,195.041,59.646,13.287
2017-10-28T15:34:34,42.805,6.029,4330,1995,195.705,59.848,13.287
2017-10-28T15:37:34,42.805,6.029,4330,1995,196.041,59.950,13.286
2017-10-28T15:40:34,42.805,6.029,4330,1995,196.182,59.993,13.286
2017-10-28T15:43:34,42.805,6.029,4330,1995,196.334,60.041,13.288
2017-10-28T15:46:34,42.805,6.029,4330,1995,196.553,60.107,13.286
2017-10-28T15:49:34,42.805,6.029,4330,1995,196.539,60.102,13.286
2017-10-28T15:52:34,42.805,6.029,4330,1995,196.635,60.132,13.287
2017-10-28T15:55:34,42.805,6.029,4330,1995,196.594,60.119,13.286
2017-10-28T15:58:34,42.805,6.029,4330,1995,196.642,60.137,13.289
2017-10-28T16:01:34,42.805,6.029,4330,1995,196.785,60.177,13.286
2017-10-28T16:04:34,42.805,6.029,4330,1995,196.907,60.215,13.286
2017-10-28T16:07:34,42.805,6.029,4330,1995,196.953,60.229,13.286
2017-10-28T16:10:34,42.805,6.029,4330,1995,196.875,60.205,13.286
2017-10-28T16:13:34,42.805,6.029,4330,1995,196.745,60.166,13.287
2017-10-28T16:16:34,42.805,6.029,4330,1995,196.778,60.175,13.286
2017-10-28T16:19:34,42.805,6.029,4330,1995,196.957,60.229,13.286
2017-10-28T16:22:34,42.805,6.029,4330,1995,196.985,60.238,13.286
2017-10-28T16:25:34,42.805,6.029,4330,1995,197.010,60.246,13.286
2017-10-28T16:28:34,42.805,6.029,4330,1995,197.019,60.249,13.286
2017-10-28T16:31:34,42.805,6.029,4330,1995,197.258,60.322,13.286
2017-10-28T16:34:34,42.805,6.029,4330,1995,197.093,60.272,13.286
2017-10-28T16:37:34,42.805,6.029,4330,1995,197.087,60.270,13.286
2017-10-28T16:40:34,42.805,6.029,4330,1995,196.937,60.224,13.286
2017-10-28T16:43:34,42.805,6.029,4330,1995,196.887,60.209,13.287
2017-10-28T16:46:34,42.805,6.029,4330,1995,196.827,60.191,13.287
2017-10-28T16:49:34,42.805,6.029,4330,1995,196.876,60.205,13.287
2017-10-28T16:52:34,42.805,6.029,4330,1995,196.725,60.159,13.286
2017-10-28T16:55:34,42.805,6.029,4330,1995,196.895,60.211,13.287
2017-10-28T16:58:34,42.805,6.029,4330,1995,197.002,60.244,13.286
2017-10-28T17:01:34,42.805,6.029,4330,1995,197.027,60.251,13.286
2017-10-28T17:04:34,42.805,6.029,4330,1995,197.062,60.262,13.286
2017-10-28T17:07:34,42.805,6.029,4330,1995,197.079,60.267,13.286
2017-10-28T17:10:34,42.805,6.029,4330,1995,197.098,60.273,13.286
2017-10-28T17:13:34,42.805,6.029,4330,1995,197.135,60.284,13.286
2017-10-28T17:16:34,42.805,6.029,4330,1995,197.130,60.283,13.286
2017-10-28T17:19:34,42.805,6.029,4330,1995,197.149,60.288,13.286
2017-10-28T17:22:34,42.805,6.029,4330,1995,197.247,60.318,13.286
2017-10-28T17:25:34,42.805,6.029,4330,1995,197.390,60.362,13.286
2017-10-28T17:28:34,42.805,6.029,4330,1995,197.357,60.352,13.286
2017-10-28T17:31:34,42.805,6.029,4330,1995,197.425,60.373,13.286
2017-10-28T17:34:34,42.805,6.029,4330,1995,197.518,60.401,13.286
2017-10-28T17:37:34,42.805,6.029,4330,1995,197.461,60.384,13.286
2017-10-28T17:40:34,42.805,6.029,4330,1995,197.394,60.363,13.286
2017-10-28T17:43:34,42.805,6.029,4330,1995,197.312,60.338,13.286
2017-10-28T17:46:34,42.805,6.029,4330,1995,197.305,60.336,13.286
2017-10-28T17:49:34,42.805,6.029,4330,1995,197.145,60.287,13.286
2017-10-28T17:52:34,42.805,6.029,4330,1995,197.168,60.294,13.286
2017-10-28T17:55:34,42.805,6.029,4330,1995,197.197,60.303,13.286
2017-10-28T17:58:34,42.805,6.029,4330,1995,197.292,60.333,13.287
2017-10-28T18:01:34,42.805,6.029,4330,1995,197.312,60.338,13.286
2017-10-28T18:04:34,42.805,6.029,4330,1995,197.375,60.357,13.286
2017-10-28T18:07:34,42.805,6.029,4330,1995,197.384,60.360,13.286